• In Hungary
  • List of Countries
  • For 7 days
  • Water Temperature
  • Satellite Maps
  • Weather Map
  • News
  • Weather Widgets
  • user-avatar
    Login

    Hourly Weather Gachki

    Today, 23 October, Tuesday

    Time Temperature Precipitation Wind Pressure Humidity
    00:00 +6°C° 0.3 mm 4 mps 734 mmHg 88%
    01:00 +6°C° 0.3 mm 4 mps 734 mmHg 88%
    02:00 +5°C° 0.3 mm 4 mps 734 mmHg 88%
    03:00 +5°C° 0.1 mm 4 mps 733 mmHg 87%
    04:00 +4°C° 0.1 mm 4 mps 733 mmHg 87%
    05:00 +4°C° 0.1 mm 3 mps 733 mmHg 86%
    06:00 +3°C° 0 mm 3 mps 733 mmHg 87%
    07:00 +3°C° 0 mm 3 mps 733 mmHg 88%
    08:00 +3°C° 0 mm 3 mps 733 mmHg 89%
    09:00 +4°C° 0 mm 2 mps 732 mmHg 84%
    10:00 +5°C° 0 mm 2 mps 732 mmHg 80%
    11:00 +6°C° 0 mm 2 mps 731 mmHg 75%
    12:00 +6°C° 0 mm 2 mps 731 mmHg 72%
    13:00 +6°C° 0 mm 2 mps 730 mmHg 69%
    14:00 +5°C° 0 mm 3 mps 729 mmHg 65%
    15:00 +6°C° 0 mm 2 mps 728 mmHg 69%
    16:00 +5°C° 0 mm 2 mps 727 mmHg 73%
    17:00 +4°C° 0 mm 2 mps 727 mmHg 77%
    18:00 +3°C° 0 mm 3 mps 726 mmHg 79%
    19:00 +3°C° 0 mm 3 mps 725 mmHg 80%
    20:00 +3°C° 0 mm 3 mps 724 mmHg 81%
    21:00 +3°C° 0 mm 3 mps 723 mmHg 81%
    22:00 +3°C° 0 mm 3 mps 722 mmHg 81%
    23:00 +3°C° 0 mm 3 mps 722 mmHg 81%

    Tomorrow, 24 October, Wednesday

    Time Temperature Precipitation Wind Pressure Humidity
    00:00 +2°C° 0 mm 3 mps 721 mmHg 80%
    01:00 +1°C° 0 mm 4 mps 720 mmHg 80%
    02:00 +1°C° 0 mm 4 mps 719 mmHg 79%
    03:00 +1°C° 0.2 mm 4 mps 718 mmHg 80%
    04:00 +1°C° 0.2 mm 4 mps 717 mmHg 81%
    05:00 +1°C° 0.2 mm 4 mps 717 mmHg 82%
    06:00 +1°C° 0.4 mm 4 mps 717 mmHg 82%
    07:00 +1°C° 0.4 mm 4 mps 716 mmHg 83%
    08:00 +3°C° 0.4 mm 4 mps 716 mmHg 83%
    09:00 +3°C° 0.4 mm 4 mps 716 mmHg 83%
    10:00 +3°C° 0.4 mm 4 mps 716 mmHg 83%
    11:00 +3°C° 0.4 mm 4 mps 716 mmHg 83%
    12:00 +3°C° 0.3 mm 4 mps 717 mmHg 83%
    13:00 +3°C° 0.3 mm 3 mps 717 mmHg 83%
    14:00 +4°C° 0.3 mm 3 mps 717 mmHg 83%
    15:00 +3°C° 0.2 mm 3 mps 718 mmHg 84%
    16:00 +3°C° 0.2 mm 3 mps 718 mmHg 86%
    17:00 +3°C° 0.2 mm 3 mps 718 mmHg 87%
    18:00 +3°C° 0.1 mm 3 mps 719 mmHg 87%
    19:00 +3°C° 0.1 mm 3 mps 719 mmHg 88%
    20:00 +2°C° 0.1 mm 3 mps 720 mmHg 88%
    21:00 +2°C° 0.2 mm 3 mps 720 mmHg 89%
    22:00 +2°C° 0.2 mm 3 mps 720 mmHg 89%
    23:00 +2°C° 0.2 mm 3 mps 720 mmHg 90%

    Day after tomorrow, 25 October, Thursday

    Time Temperature Precipitation Wind Pressure Humidity
    00:00 +2°C° 0.1 mm 3 mps 721 mmHg 89%
    01:00 +2°C° 0.1 mm 3 mps 721 mmHg 89%
    02:00 +1°C° 0.1 mm 3 mps 721 mmHg 89%
    03:00 0°C° 0 mm 4 mps 721 mmHg 88%
    04:00 0°C° 0 mm 4 mps 721 mmHg 88%
    05:00 0°C° 0 mm 4 mps 721 mmHg 87%
    06:00 0°C° 0 mm 4 mps 721 mmHg 87%
    07:00 0°C° 0 mm 4 mps 721 mmHg 86%
    08:00 -1°C° 0 mm 4 mps 721 mmHg 86%
    09:00 0°C° 0 mm 4 mps 721 mmHg 85%
    10:00 0°C° 0 mm 4 mps 721 mmHg 83%
    11:00 0°C° 0 mm 4 mps 720 mmHg 81%
    12:00 0°C° 0 mm 5 mps 720 mmHg 80%
    13:00 0°C° 0 mm 5 mps 720 mmHg 78%
    14:00 +1°C° 0 mm 5 mps 720 mmHg 77%
    15:00 0°C° 0.1 mm 5 mps 720 mmHg 77%
    16:00 0°C° 0.1 mm 5 mps 720 mmHg 78%
    17:00 0°C° 0.1 mm 5 mps 720 mmHg 78%
    18:00 0°C° 0.1 mm 5 mps 720 mmHg 79%
    19:00 0°C° 0.1 mm 5 mps 720 mmHg 80%
    20:00 0°C° 0.1 mm 5 mps 720 mmHg 81%
    21:00 -1°C° 0 mm 5 mps 720 mmHg 83%
    22:00 -1°C° 0 mm 5 mps 721 mmHg 84%
    23:00 -1°C° 0 mm 5 mps 721 mmHg 86%

    26 October, Friday

    Time Temperature Precipitation Wind Pressure Humidity
    00:00 -1°C° 0 mm 4 mps 721 mmHg 87%
    01:00 -1°C° 0 mm 4 mps 722 mmHg 87%
    02:00 -1°C° 0 mm 4 mps 722 mmHg 88%
    03:00 -1°C° 0 mm 4 mps 723 mmHg 88%
    04:00 -1°C° 0 mm 4 mps 723 mmHg 89%
    05:00 -1°C° 0 mm 4 mps 723 mmHg 90%
    06:00 -1°C° 0 mm 4 mps 724 mmHg 90%
    07:00 -1°C° 0 mm 4 mps 724 mmHg 89%
    08:00 -1°C° 0 mm 4 mps 725 mmHg 89%
    09:00 -1°C° 0 mm 4 mps 725 mmHg 88%
    10:00 0°C° 0 mm 4 mps 725 mmHg 86%
    11:00 0°C° 0 mm 4 mps 726 mmHg 85%
    12:00 0°C° 0.1 mm 4 mps 726 mmHg 84%
    13:00 0°C° 0.1 mm 4 mps 726 mmHg 84%
    14:00 +1°C° 0.1 mm 4 mps 727 mmHg 83%
    15:00 +1°C° 0.1 mm 4 mps 727 mmHg 84%
    16:00 0°C° 0.1 mm 4 mps 727 mmHg 84%
    17:00 +1°C° 0.1 mm 3 mps 728 mmHg 85%
    18:00 +1°C° 0.1 mm 3 mps 728 mmHg 85%
    19:00 +1°C° 0.1 mm 3 mps 728 mmHg 86%
    20:00 +1°C° 0.1 mm 3 mps 729 mmHg 87%
    21:00 0°C° 0 mm 3 mps 729 mmHg 88%
    22:00 0°C° 0 mm 3 mps 730 mmHg 89%
    23:00 0°C° 0 mm 3 mps 730 mmHg 90%

    27 October, Saturday

    Time Temperature Precipitation Wind Pressure Humidity
    00:00 0°C° 0 mm 3 mps 731 mmHg 91%
    01:00 -1°C° 0 mm 3 mps 731 mmHg 92%
    02:00 -1°C° 0 mm 3 mps 732 mmHg 93%
    03:00 -1°C° 0 mm 2 mps 732 mmHg 94%
    04:00 -2°C° 0 mm 2 mps 732 mmHg 94%
    05:00 -2°C° 0 mm 2 mps 733 mmHg 95%
    06:00 -2°C° 0 mm 2 mps 733 mmHg 93%
    07:00 -2°C° 0 mm 2 mps 733 mmHg 92%
    08:00 -1°C° 0 mm 2 mps 733 mmHg 91%
    09:00 +1°C° 0 mm 2 mps 733 mmHg 88%
    10:00 +2°C° 0 mm 2 mps 733 mmHg 84%
    11:00 +2°C° 0 mm 3 mps 733 mmHg 81%
    12:00 +2°C° 0.3 mm 3 mps 732 mmHg 81%
    13:00 +1°C° 0.3 mm 4 mps 732 mmHg 81%
    14:00 +3°C° 0.3 mm 4 mps 731 mmHg 82%
    15:00 +2°C° 1 mm 5 mps 731 mmHg 83%
    16:00 +2°C° 1 mm 5 mps 730 mmHg 85%
    17:00 +2°C° 1 mm 5 mps 730 mmHg 86%
    18:00 +3°C° 0.4 mm 5 mps 729 mmHg 87%
    19:00 +3°C° 0.4 mm 5 mps 729 mmHg 87%
    20:00 +5°C° 0.4 mm 5 mps 729 mmHg 88%
    21:00 +5°C° 0.1 mm 5 mps 729 mmHg 89%
    22:00 +5°C° 0.1 mm 4 mps 729 mmHg 89%
    23:00 +5°C° 0.1 mm 4 mps 730 mmHg 90%

    28 October, Sunday

    Time Temperature Precipitation Wind Pressure Humidity
    00:00 +5°C° 0 mm 3 mps 730 mmHg 92%
    01:00 +4°C° 0 mm 3 mps 730 mmHg 93%
    02:00 +5°C° 0 mm 2 mps 730 mmHg 95%
    03:00 +5°C° 0 mm 2 mps 730 mmHg 95%
    04:00 +5°C° 0 mm 2 mps 731 mmHg 96%
    05:00 +5°C° 0 mm 2 mps 731 mmHg 96%
    06:00 +5°C° 0 mm 2 mps 731 mmHg 96%
    07:00 +6°C° 0 mm 1 mps 731 mmHg 96%
    08:00 +6°C° 0 mm 1 mps 731 mmHg 96%
    09:00 +6°C° 0 mm 1 mps 731 mmHg 93%
    10:00 +7°C° 0 mm 1 mps 732 mmHg 91%
    11:00 +7°C° 0 mm 1 mps 732 mmHg 88%
    12:00 +7°C° 0.2 mm 1 mps 731 mmHg 89%
    13:00 +7°C° 0.2 mm 1 mps 731 mmHg 91%
    14:00 +7°C° 0.2 mm 1 mps 731 mmHg 93%
    15:00 +6°C° 0.8 mm 1 mps 731 mmHg 94%
    16:00 +6°C° 0.8 mm 1 mps 730 mmHg 95%
    17:00 +5°C° 0.8 mm 2 mps 730 mmHg 96%
    18:00 +5°C° 0.5 mm 2 mps 729 mmHg 95%
    19:00 +4°C° 0.5 mm 3 mps 729 mmHg 93%
    20:00 +4°C° 0.5 mm 3 mps 728 mmHg 91%
    21:00 +4°C° 0.5 mm 3 mps 728 mmHg 92%
    22:00 +4°C° 0.5 mm 3 mps 727 mmHg 93%
    23:00 +5°C° 0.5 mm 3 mps 727 mmHg 93%

    29 October, Monday

    Time Temperature Precipitation Wind Pressure Humidity
    00:00 +4°C° 0.4 mm 4 mps 727 mmHg 91%
    01:00 +3°C° 0.4 mm 5 mps 727 mmHg 89%
    02:00 +3°C° 0.4 mm 6 mps 728 mmHg 86%
    03:00 +3°C° 0.1 mm 5 mps 729 mmHg 86%
    04:00 +2°C° 0.1 mm 5 mps 730 mmHg 86%
    05:00 +2°C° 0.1 mm 5 mps 731 mmHg 86%
    06:00 +3°C° 0.1 mm 4 mps 732 mmHg 86%
    07:00 +3°C° 0.1 mm 4 mps 734 mmHg 86%
    08:00 +3°C° 0.1 mm 4 mps 735 mmHg 86%
    09:00 +3°C° 0.1 mm 4 mps 736 mmHg 84%
    10:00 +4°C° 0.1 mm 4 mps 737 mmHg 81%
    11:00 +4°C° 0.1 mm 4 mps 737 mmHg 79%
    12:00 +4°C° 0.1 mm 4 mps 738 mmHg 78%
    13:00 +4°C° 0.1 mm 4 mps 739 mmHg 77%
    14:00 +4°C° 0.1 mm 4 mps 739 mmHg 75%
    15:00 +4°C° 0 mm 3 mps 740 mmHg 78%
    16:00 +3°C° 0 mm 3 mps 740 mmHg 80%
    17:00 +3°C° 0 mm 3 mps 741 mmHg 82%
    18:00 +4°C° 0 mm 2 mps 742 mmHg 83%
    19:00 +3°C° 0 mm 2 mps 742 mmHg 85%
    20:00 +3°C° 0 mm 2 mps 742 mmHg 86%
    21:00 +3°C° 0 mm 2 mps 743 mmHg 88%
    22:00 +2°C° 0 mm 2 mps 743 mmHg 89%
    23:00 +2°C° 0 mm 2 mps 744 mmHg 91%
    Show more